Simultaneous Nadir Overpasses (SNOs) Predictions

Prediction of SNOs between AQUA and GOES-15 Satellite Orbit:

Table of predicted SNOs for the next 14.0 days since TLE Epoch: 10/24/2021
Index Date Time (AQUA) AQUA Lat,Lon GOES-15 Lat,Lon Distance(km) Time Diff (sec)
1 10/25/2021 21:58:04 0.38,-125.66 -0.21,-128.35 306.60 80
2 10/26/2021 10:19:20 0.73,-130.81 0.18,-128.36 279.16 80
3 10/28/2021 10:07:11 0.10,-127.86 0.18,-128.38 58.52 80
4 10/30/2021 09:55:02 -0.55,-124.92 0.18,-128.40 395.77 80
5 10/30/2021 22:16:26 -0.52,-130.12 -0.16,-128.40 195.71 80
6 11/01/2021 22:04:18 0.13,-127.17 -0.16,-128.41 141.27 80
7 11/02/2021 10:25:33 0.99,-132.33 0.13,-128.42 444.59 80
8 11/03/2021 21:52:08 0.72,-124.21 -0.16,-128.42 477.87 80
9 11/04/2021 10:13:24 0.33,-129.38 0.14,-128.43 108.16 80
10 11/06/2021 10:01:14 -0.27,-126.42 0.14,-128.43 227.40 80
11 11/06/2021 22:22:39 -0.79,-131.62 -0.12,-128.41 364.85 80
